Regional Weather Roundup
Issued by NWS

Home | Current Version | Previous Version | Graphics & Text | Print | Product List | Glossary On
Versions: 1 2 3 4 5 6 7 8 9 10 11 12 13 14 15 16 17 18 19 20 21 22 23 24 25 26 27 28 29 30 31 32 33 34 35 36 37 38 39 40 41 42 43 44 45 46 47 48 49 50
000
ASUS43 KDMX 301807
RWRIA

WEATHER ROUNDUP FOR IOWA
NATIONAL WEATHER SERVICE DES MOINES IA
100 PM CDT SAT MAY 30 2015

NOTE: "FAIR" INDICATES FEW OR NO CLOUDS BELOW 12,000 FEET WITH NO
SIGNIFICANT WEATHER AND/OR OBSTRUCTIONS TO VISIBILITY.

* - THESE STATIONS ARE NOT NWS STATIONS...THUS NOT UNDER NWS
QUALITY CONTROL.  THEY ALSO DO NOT REPORT WEATHER SUCH
AS PRECIPITATION OR FOG.

IAZ001>003-012>014-020>022-031>034-043>046-301900-
   NORTHWEST IOWA

CITY           SKY/WX    TMP DP  RH WIND       PRES   REMARKS
CARROLL *      CLOUDY    55  50  82 N17       30.18S
CHEROKEE *     SUNNY     58  44  58 N14G21    30.22F
DENISON *      MOSUNNY   59  50  72 N17       30.18S
LE MARS *      SUNNY     59  45  58 N15G22    30.25F
ORANGE CITY *  SUNNY     55  43  62 N13G21    30.24F
SHELDON *      PTSUNNY   57 N/A N/A N18       30.24S
SIOUX CITY     SUNNY     62  41  46 N15G25    30.23F
6HR MIN TEMP:  50; 6HR MAX TEMP:  62;

SPENCER        MOSUNNY   59  43  55 N14G23    30.23S
6HR MIN TEMP:  49; 6HR MAX TEMP:  59;

STORM LAKE *   SUNNY     59  43  55 N15G26    30.21S
$$

IAZ055>058-069>071-079>083-090>094-301900-
   SOUTHWEST IOWA

CITY           SKY/WX    TMP DP  RH WIND       PRES   REMARKS
ATLANTIC *     CLOUDY    57  52  82 N16       30.18R
AUDUBON *      PTSUNNY   57  52  82 N14       30.18S
CLARINDA *     CLOUDY    57  52  82 N16       30.18R
COUNCIL BLFS * CLOUDY    59  50  72 N16       30.19S
CRESTON *      CLOUDY    55  54  94 N17G23    30.14S
HARLAN  *      CLOUDY    59  55  88 N16G25    30.22S
LAMONI         CLOUDY    60  54  80 N16       30.11S
6HR MIN TEMP:  58; 6HR MAX TEMP:  61; 6HR PCP: TRACE;

RED OAK *      CLOUDY    57  52  82 N18       30.18S
SHENANDOAH *   CLOUDY    57  50  77 N15       30.18S
$$

IAZ047>049-059>061-072>074-084-301900-
   CENTRAL IOWA

CITY           SKY/WX    TMP DP  RH WIND       PRES   REMARKS
AMES           CLOUDY    63  53  70 N22       30.13S
6HR MIN TEMP:  55; 6HR MAX TEMP:  63;

ANKENY *       CLOUDY    61  54  77 N15       30.13R
CHARITON *     PTSUNNY   59  55  88 N16G22    30.10S
DES MOINES     CLOUDY    61  51  70 N13G25    30.12S
6HR MIN TEMP:  56; 6HR MAX TEMP:  61; 6HR PCP: TRACE;

GRINNELL*      CLOUDY    61  54  77 N17G24    30.10S
KNOXVILLE *    CLOUDY    59  54  82 N14G21    30.09R
MARSHALLTOWN   CLOUDY    58  52  80 N20G26    30.12R
6HR MIN TEMP:  55; 6HR MAX TEMP:  58; 6HR PCP: TRACE;

PELLA *        PTSUNNY   60  56  88 N14G24    30.11S
PERRY *        CLOUDY    58  50  75 N20G25    30.16S
$$

IAZ004>006-015-016-023>025-035-036-301900-
   NORTH CENTRAL IOWA

CITY           SKY/WX    TMP DP  RH WIND       PRES   REMARKS
ALGONA *       PTSUNNY   57  48  72 N18       30.21R
CLARION *      CLOUDY    57  50  77 N16G23    30.17R
ESTHERVILLE    PTSUNNY   56  45  66 N17G24    30.23S
6HR MIN TEMP:  46; 6HR MAX TEMP:  56;

FORT DODGE *   CLOUDY    57  48  72 N9G22     30.19S
MASON CITY     CLOUDY    57  50  77 N20       30.19R
6HR MIN TEMP:  52; 6HR MAX TEMP:  58;

FOREST CITY *  CLOUDY    55  48  76 N15       30.19R
IOWA FALLS *   CLOUDY    57  50  77 N17       30.16R
$$

IAZ007>011-017>019-026>030-037>042-050>054-066-301900-
   NORTHEAST IOWA

CITY           SKY/WX    TMP DP  RH WIND       PRES   REMARKS
CEDAR RAPIDS   CLOUDY    61  57  87 N20G26    30.05R
6HR MIN TEMP:  61; 6HR MAX TEMP:  63;

CHARLES CITY * CLOUDY    57  54  88 N15       30.16R
CLINTON *      CLOUDY    63  57  82 N21       30.04R
DECORAH *      CLOUDY    55  52  88 N12G18    30.14R
DUBUQUE        CLOUDY    57  55  93 NE21G29   30.06R FOG
6HR MIN TEMP:  57; 6HR MAX TEMP:  64; 6HR PCP:  0.01;

MONTICELLO *   CLOUDY    61  57  88 NE14G26   30.06R
OELWEIN *      CLOUDY    59  54  82 N22G29    30.12R
WATERLOO       LGT RAIN  57  54  89 N15G21    30.12R FOG
6HR MIN TEMP:  55; 6HR MAX TEMP:  58; 6HR PCP:  0.01;

$$

IAZ064-065-067-068-078-301900-
   EAST CENTRAL IOWA

CITY           SKY/WX    TMP DP  RH WIND       PRES   REMARKS
DAVENPORT      CLOUDY    66  61  84 N17       30.00S
6HR MIN TEMP:  66; 6HR MAX TEMP:  68; 6HR PCP:  0.22;

IOWA CITY      CLOUDY    64  58  80 N14G21    30.05R
6HR MIN TEMP:  64; 6HR MAX TEMP:  66;

MT. PLEASANT * CLOUDY    65  61  87 NW14G20   30.02R
MUSCATINE *    CLOUDY    68  61  77 N14       30.01S
QUAD CITIES    LGT RAIN  68  64  87 NW15      29.98S
6HR MIN TEMP:  67; 6HR MAX TEMP:  71; 6HR PCP:  0.13;

$$

IAZ062-063-075>077-085>089-095>099-301900-
   SOUTHEAST IOWA

CITY           SKY/WX    TMP DP  RH WIND       PRES   REMARKS
BURLINGTON     CLOUDY    70  66  87 NW9       29.99S
6HR MIN TEMP:  65; 6HR MAX TEMP:  70; 6HR PCP:  0.69;

FAIRFIELD *    CLOUDY    63  59  88 N18       30.04S
FORT MADISON * CLOUDY    66  64  94 NW12      30.01S
KEOKUK *       CLOUDY    68  64  88 NW10G18   30.00S
OSKALOOSA *    CLOUDY    59  56  91 N12       30.07S FOG
CENTERVILLE *  CLOUDY    59  59 100 NW15      30.09R
OTTUMWA        CLOUDY    61  57  87 N17       30.06S
6HR MIN TEMP:  59; 6HR MAX TEMP:  62;

WASHINGTON *   CLOUDY    64  59  82 N17       30.05R
$$

ABBREVIATIONS USED IN REMARKS
   TC - TEMPERATURES IN CELSIUS
  WCI - WIND CHILL INDEX
   HX - HEAT INDEX
  VSB - VISIBILITY
$$



USA.gov is the U.S. government's official web portal to all federal, state and local government web resources and services.